Dewpoint
44 44 44 44 44 45 44 44 44 45 45 43 46 46 48 48 47 50 52 54 57 53 50 49 48 48 44 37 34 38 43 47 41 35 31 28 24 23 22 20 23 23 24 22 20 20 23
44 44 44 43 43 43 43 42 43 42 45 44 43 46 45 47 46 49 52 56 55 51 49 50 47 47 40 32 37 34 32 43 39 35 31 30 25 26 26 22 22 21 21 23 26 25 23
45 45 46 45 44 42 41 43 43 42 41 44 42 43 45 45 46 49 50 56 54 50 49 48 47 44 38 33 36 35 34 33 38 34 30 33 32 30 25 23 23 22 22 23 20 20 23
41 40 42 45 45 44 43 44 43 41 40 39 42 41 44 44 45 48 48 56 51 49 49 48 47 41 34 39 39 38 35 34 37 35 34 34 35 33 31 29 27 23 21 17 16 14 17
42 41 40 41 42 44 44 44 43 42 40 39 38 39 42 43 44 47 53 51 49 49 47 46 43 39 31 41 37 35 33 33 35 35 35 35 35 31 30 28 26 24 21 16 14 16 16
42 39 38 39 41 43 44 43 43 43 42 40 39 38 41 43 48 51 50 49 49 47 46 44 41 36 35 31 34 35 35 34 34 33 34 35 33 29 29 28 18 16 20 20 18 18 17
43 41 38 38 39 41 43 43 43 43 43 41 41 39 40 42 45 51 48 45 40 40 41 36 35 32 33 34 35 35 36 34 34 33 28 29 30 26 26 25 24 24 22 19 20 21 26
47 43 38 37 40 40 42 43 42 42 42 42 42 41 41 43 45 49 46 41 39 41 37 38 36 35 34 35 34 36 37 34 32 28 27 29 26 26 25 24 24 25 25 24 25 24 23
47 43 38 39 40 40 41 42 45 45 42 43 42 41 43 44 48 49 44 42 46 43 34 35 36 34 34 35 32 35 36 33 30 27 27 27 25 27 26 25 25 27 28 26 27 26 28
43 44 39 43 41 41 41 41 43 43 43 43 43 42 43 44 45 45 42 43 46 43 32 31 34 35 36 36 33 36 37 34 30 28 27 27 29 29 29 30 32 27 29 32 31 28 21
45 41 39 42 41 42 42 43 44 43 44 44 43 43 42 44 41 42 44 43 44 40 22 31 33 37 37 34 36 37 38 36 32 34 33 27 28 29 30 32 35 30 36 33 30 27 29
42 38 41 42 42 43 43 43 43 43 43 44 44 44 43 41 41 42 45 43 40 28 23 32 35 35 34 34 35 39 39 40 38 34 35 32 33 31 31 34 37 38 33 33 31 29 25
40 39 42 43 43 44 44 44 43 43 44 44 45 42 42 43 38 45 44 40 28 24 30 30 30 33 30 31 33 36 35 33 30 27 28 30 31 33 35 35 36 37 34 26 24 26 21
38 39 41 42 43 45 44 43 44 44 45 46 45 45 43 41 44 46 41 33 24 27 31 30 30 30 27 30 32 36 35 31 35 34 30 27 26 31 33 33 34 33 33 28 20 21 24
39 41 42 43 45 44 43 44 44 45 46 46 45 42 41 42 45 46 37 27 27 30 29 27 28 27 28 29 33 32 32 33 35 33 30 30 28 33 36 37 37 32 32 33 30 28 27
41 42 44 46 46 46 44 44 44 46 45 45 43 40 40 42 47 42 33 29 30 32 30 26 21 22 23 26 30 30 31 35 34 37 36 34 29 35 35 37 36 35 33 26 27 24 20
43 44 45 47 48 48 47 46 45 45 46 44 40 37 43 47 43 37 30 31 35 34 30 27 24 22 23 26 28 28 31 35 37 36 36 33 31 33 36 34 31 31 26 25 24 21 22
43 44 46 48 49 50 50 48 46 46 47 42 38 32 43 44 33 35 32 34 36 36 35 31 28 25 25 28 28 28 29 32 35 34 30 30 30 28 28 30 31 32 26 23 20 17 19
43 46 48 50 50 51 50 48 47 46 46 38 36 36 43 44 29 32 32 36 37 36 33 31 27 28 30 29 27 30 31 34 34 34 32 30 27 27 26 28 30 28 26 24 22 25 17
46 47 49 50 50 50 49 48 46 44 46 41 37 31 37 39 37 31 31 34 36 35 31 31 31 31 29 27 29 29 29 33 34 33 33 32 27 26 22 27 29 27 26 23 24 22 18
46 47 49 50 50 50 49 45 44 45 46 42 38 34 36 32 31 29 34 36 29 30 31 30 29 29 27 24 26 26 28 28 30 33 31 30 29 27 25 26 29 28 27 25 25 21 19
46 47 49 49 47 49 47 45 45 46 47 41 34 34 35 32 31 29 34 29 28 31 31 28 28 28 26 26 25 24 26 27 27 30 30 29 28 27 25 24 26 24 25 26 27 26 22
46 47 49 49 48 47 47 47 47 48 46 39 40 38 29 30 28 27 31 32 31 32 32 32 30 29 30 32 33 33 33 32 31 30 28 28 29 29 25 23 22 21 21 25 28 29 28
45 46 49 48 48 48 47 45 44 43 44 41 39 32 27 27 27 30 33 33 32 33 31 32 33 30 33 33 32 32 31 30 30 30 29 27 27 28 26 24 20 22 24 26 24 28 30
43 45 48 47 46 47 46 44 43 41 40 38 36 34 28 26 29 32 31 32 32 33 33 34 34 34 34 32 28 25 25 28 27 29 29 29 26 26 25 18 19 22 24 25 25 24 29
43 44 47 48 47 48 48 47 45 41 39 36 35 37 32 29 29 33 32 32 29 30 32 34 35 37 35 28 23 21 18 22 21 24 29 28 27 25 22 20 13 22 26 29 28 20 27
44 44 46 48 48 48 48 47 47 44 39 36 35 36 35 31 32 32 31 31 33 32 31 33 33 34 34 27 21 19 19 24 18 18 21 23 22 22 21 20 21 24 26 28 20 21 28
43 44 45 48 47 47 47 47 46 44 40 36 35 35 36 32 32 32 32 33 33 33 29 33 32 33 32 28 24 22 20 22 22 22 21 20 19 18 20 18 14 27 27 24 25 26 28
42 44 44 45 47 47 46 46 45 43 41 37 33 34 34 33 32 31 31 31 31 32 34 34 32 32 33 30 27 25 22 23 21 14 25 20 22 21 21 20 25 28 29 29 28 28 28
Wind_Speed
21 22 22 22 22 20 20 21 22 23 22 22 24 23 22 20 22 23 26 30 19 16 11 10 8 7 6 5 4 10 2 9 8 3 2 4 7 9 12 9 12 17 19 23 22 21 22
20 22 20 19 20 19 20 21 20 21 23 21 23 21 22 23 24 21 23 22 20 15 11 13 10 10 7 7 6 6 5 7 5 5 3 4 4 5 11 15 16 14 17 18 19 21 22
25 26 27 26 24 25 23 21 20 20 22 22 23 25 23 24 26 24 21 15 18 14 12 14 11 10 8 4 5 6 5 6 6 6 4 2 6 7 7 11 11 15 21 23 26 26 27
26 27 26 26 28 25 24 21 21 21 20 22 22 24 26 25 27 28 33 18 19 13 12 12 10 6 5 3 4 5 6 6 6 5 3 5 6 11 12 12 17 19 21 24 21 23 26
25 26 27 28 24 26 24 21 21 21 21 21 21 22 25 27 29 34 21 20 19 15 12 9 7 8 2 6 6 7 6 6 9 6 6 5 6 11 7 9 11 11 19 22 22 18 19
23 25 27 26 28 27 25 24 22 22 21 23 23 20 23 27 36 13 24 22 14 13 9 5 6 6 5 5 8 8 7 6 5 6 6 5 5 9 11 12 15 15 14 19 21 17 17
21 25 27 24 24 24 25 24 22 21 22 22 22 22 20 23 24 7 23 19 10 5 7 5 6 0 11 8 10 6 8 9 6 7 7 1 7 17 15 19 21 21 23 28 26 22 21
21 26 27 25 29 25 24 22 23 22 23 22 21 21 19 21 23 12 6 3 5 5 4 12 4 4 6 5 6 8 9 8 9 12 4 5 18 21 19 18 19 22 26 31 30 27 19
21 24 26 25 24 25 23 23 22 20 24 20 19 18 18 19 14 12 5 2 5 6 3 9 11 6 5 7 4 13 13 6 7 10 11 17 12 14 15 17 21 25 27 30 27 20 19
23 26 28 23 25 25 25 24 21 23 20 17 15 16 14 16 1 2 1 4 2 4 4 7 9 6 6 6 4 6 12 4 5 9 11 14 17 16 16 19 19 27 23 31 25 12 11
25 28 24 24 26 24 23 24 18 18 18 16 12 12 11 6 8 2 4 8 2 3 6 9 7 8 8 7 8 6 5 3 9 6 4 6 8 9 19 11 5 11 6 10 17 17 12
26 26 26 26 25 25 25 22 19 16 15 12 8 3 8 5 4 4 10 7 3 2 4 5 6 9 9 8 4 6 2 3 3 6 8 19 21 16 8 18 18 6 6 3 9 10 6
28 27 27 26 28 30 26 22 19 19 16 12 8 10 10 2 1 3 13 5 3 5 8 8 8 10 11 8 6 6 5 6 5 4 2 4 6 5 8 10 10 7 5 6 6 6 4
30 29 28 28 29 27 25 24 21 21 19 11 2 8 6 6 4 7 9 1 5 5 4 4 10 14 5 8 3 5 3 5 10 7 6 5 1 7 9 7 9 14 10 8 2 3 4
29 29 29 30 32 28 25 24 22 20 19 19 12 5 3 3 6 6 4 5 5 2 6 9 13 8 4 3 1 6 1 3 2 7 4 5 3 8 7 11 9 8 6 11 3 1 2
29 29 30 32 30 27 24 22 20 19 12 19 12 13 7 10 11 6 2 4 2 3 7 15 5 1 6 8 4 4 3 1 1 2 2 2 4 7 7 7 5 4 9 5 3 4 6
31 32 34 35 33 29 21 20 17 17 14 9 10 9 8 13 10 3 3 5 3 1 2 4 5 6 6 5 3 2 2 4 7 4 9 6 6 4 4 4 6 3 11 5 4 3 4
35 37 37 36 32 25 14 12 13 12 8 7 8 9 4 5 4 2 4 3 7 7 3 5 5 5 6 3 3 3 2 2 4 2 3 2 6 3 1 1 3 3 10 12 8 9 6
36 38 38 38 30 17 5 3 7 5 6 7 6 6 5 5 5 1 3 5 4 4 4 2 3 3 1 2 2 3 0 3 6 3 4 4 3 6 1 5 3 6 14 14 1 3 11
35 38 42 37 23 11 9 5 6 5 3 5 6 5 2 2 1 2 5 4 2 4 9 7 6 6 3 6 2 6 3 2 4 5 3 4 4 6 8 3 5 8 14 15 10 9 13
35 38 40 33 25 13 14 10 7 6 3 1 3 4 2 6 5 6 5 1 9 6 5 3 4 3 1 3 7 4 2 1 1 5 3 4 3 4 5 5 4 6 8 11 14 11 9
33 36 36 30 27 20 16 11 10 8 13 2 4 5 3 10 5 6 4 4 7 5 6 7 9 6 4 7 6 4 2 2 4 4 4 4 2 4 4 6 4 4 8 6 8 9 8
31 32 30 29 24 20 16 15 11 11 10 3 3 1 2 3 5 4 3 3 5 2 6 6 5 7 9 6 8 8 7 6 5 5 5 4 2 3 2 5 3 3 8 8 4 6 6
28 29 25 24 25 19 17 16 18 18 10 4 3 1 5 8 6 5 5 6 7 6 4 4 6 1 3 1 2 1 5 5 7 8 5 2 2 1 3 3 2 3 3 2 3 2 4
25 26 25 17 20 22 21 22 23 20 16 6 4 2 4 11 10 8 7 7 6 8 6 5 6 3 2 5 2 1 2 2 3 5 7 6 3 3 3 4 1 0 2 3 5 2 2
20 21 21 14 12 17 20 22 19 19 16 4 8 6 2 12 4 3 6 1 4 4 4 3 1 3 4 3 2 2 2 2 1 1 1 4 3 4 2 3 3 4 4 1 2 3 2
19 19 18 14 15 11 13 16 20 21 16 6 5 8 4 4 2 2 3 3 0 0 3 3 2 2 2 3 2 2 1 2 2 3 2 3 3 5 4 4 1 4 3 1 2 3 2
16 15 15 14 12 15 13 10 14 20 16 8 4 10 5 3 3 2 2 1 2 2 3 4 3 4 2 2 2 0 2 1 3 2 3 3 3 2 2 3 3 5 3 3 2 1 0
12 14 12 12 12 12 14 16 9 12 16 10 4 5 8 5 3 2 3 4 4 3 2 2 3 1 2 2 2 1 3 2 2 2 3 3 3 3 4 2 2 5 1 1 1 1 2
Wind_Direction
341 338 338 337 336 337 335 333 337 337 333 335 332 333 333 330 323 319 318 304 184 178 184 189 177 166 208 218 233 128 90 130 135 167 256 269 268 276 260 269 262 256 265 269 273 270 268
336 332 328 326 325 324 324 322 326 327 330 328 328 327 331 326 326 311 310 283 178 171 163 175 172 179 226 230 91 136 146 164 208 221 217 247 295 296 284 271 266 279 293 285 280 269 264
337 334 333 330 329 324 323 327 321 321 324 329 327 333 333 327 324 314 321 229 164 158 163 162 170 195 223 190 149 129 136 192 184 227 235 256 296 274 313 279 276 279 280 273 260 252 250
339 337 334 333 327 321 321 323 316 318 318 322 328 327 327 329 322 319 315 170 142 145 149 163 183 204 246 117 227 212 182 162 184 217 265 308 286 273 270 278 285 271 265 270 265 251 239
336 334 330 328 328 324 319 316 311 314 314 315 317 321 324 329 320 316 301 130 131 138 141 153 200 230 225 127 203 204 179 174 182 213 256 263 267 262 281 256 272 256 266 269 276 250 262
328 334 329 329 326 325 322 319 319 318 316 316 315 318 324 330 328 299 121 112 114 118 127 160 279 208 180 180 153 141 168 196 169 214 254 249 259 252 240 219 248 261 249 266 268 278 239
333 327 327 324 320 323 326 324 323 321 314 312 315 316 325 329 326 113 121 117 110 117 184 188 191 57 135 116 140 156 154 167 191 223 241 272 257 238 244 245 248 270 273 273 271 276 289
330 323 328 326 331 333 327 327 321 320 314 312 314 314 323 325 325 269 163 199 138 117 193 216 182 137 130 175 155 160 175 182 201 235 222 239 253 257 261 264 258 250 258 265 279 275 249
330 319 331 333 335 328 327 321 315 326 309 305 311 309 320 332 343 136 337 53 50 17 215 159 196 185 183 193 198 178 185 206 226 251 237 241 250 310 273 273 270 257 252 261 258 279 272
350 330 333 343 330 328 329 325 330 318 311 310 300 302 314 333 240 87 247 82 50 288 173 154 185 202 175 196 204 157 200 221 212 262 251 258 255 262 275 268 263 262 254 249 246 239 233
332 338 343 338 330 329 327 326 323 311 306 301 298 301 310 323 322 210 177 170 206 347 182 138 145 142 160 187 137 167 171 217 254 262 250 264 292 302 302 269 232 252 281 218 214 218 271
344 343 348 339 333 333 328 325 323 316 305 303 293 342 320 264 234 265 116 129 126 207 169 134 134 163 154 194 141 111 118 64 21 268 248 261 276 289 252 303 302 280 119 129 198 243 226
347 344 348 342 336 330 329 325 322 317 312 300 280 181 257 230 303 129 130 125 191 272 173 146 157 164 180 161 168 174 181 182 240 261 256 296 238 251 256 312 302 291 282 173 212 199 117
347 344 341 334 329 334 325 323 326 320 318 317 182 201 199 222 141 153 137 218 255 93 77 140 139 157 148 141 175 191 206 209 230 255 296 332 22 355 360 335 318 310 330 359 338 106 115
344 341 336 330 326 328 330 332 331 342 321 271 208 208 93 239 148 146 139 244 42 66 129 137 139 146 106 173 214 213 164 321 90 198 307 335 303 336 28 337 347 342 1 315 341 158 181
340 336 331 324 326 326 328 330 338 346 19 44 102 126 121 154 122 113 346 61 32 0 131 163 119 39 144 174 203 209 10 34 294 267 211 291 305 3 321 347 322 213 310 342 287 12 58
339 339 332 325 321 312 307 316 331 349 8 14 80 86 81 109 85 57 342 42 20 82 62 1 82 124 118 147 238 89 86 228 210 253 210 275 242 187 184 227 334 335 7 296 278 5 5
345 338 335 332 331 333 325 301 317 343 354 46 60 76 89 90 91 323 5 1 316 23 52 62 72 73 120 145 85 87 101 78 18 214 248 276 301 317 296 146 258 309 359 3 355 27 14
345 341 340 340 338 333 5 316 325 353 10 104 68 68 14 335 135 344 275 43 14 5 33 72 81 36 88 132 113 100 102 14 12 351 332 351 320 311 336 167 168 15 5 358 359 345 33
348 348 348 355 10 39 96 103 88 70 45 76 110 99 44 295 219 308 47 7 66 7 56 64 98 102 116 76 86 141 120 10 342 345 336 281 21 18 26 36 324 5 14 21 39 33 59
353 355 357 10 20 71 100 103 62 44 20 330 54 103 171 135 168 82 67 296 81 80 42 27 78 44 3 100 93 90 62 329 357 4 356 351 60 51 52 29 38 28 27 34 49 24 70
357 360 6 19 31 60 82 52 39 27 341 26 117 140 142 126 132 111 61 76 75 73 1 73 84 54 61 85 28 119 82 352 357 349 6 2 83 358 30 35 44 64 36 40 41 36 69
360 4 12 23 33 46 55 56 35 348 334 69 58 17 159 137 123 133 85 34 56 352 58 59 35 88 77 55 44 60 66 65 36 334 352 1 106 358 16 358 317 193 19 18 20 30 346
2 5 16 34 33 35 32 18 17 21 15 16 44 269 151 134 141 105 130 84 52 27 101 25 7 43 63 12 314 126 85 75 53 45 9 15 30 3 328 310 319 62 42 21 319 353 20
7 4 9 29 41 26 23 25 16 11 7 43 9 313 136 139 134 129 131 113 104 87 65 37 31 47 304 284 244 204 167 209 30 22 22 15 317 327 315 308 20 213 14 14 8 25 40
5 9 6 15 36 38 23 19 8 11 10 36 37 328 321 140 161 103 144 161 139 127 118 75 77 313 301 308 333 8 7 350 316 295 331 314 301 289 317 304 287 61 120 31 283 240 119
357 6 10 13 359 21 36 17 8 11 8 21 47 2 305 104 117 284 166 137 46 223 99 144 192 243 266 336 357 346 6 337 297 301 327 309 305 266 250 273 258 128 138 302 248 51 103
350 360 8 6 9 358 0 23 21 16 10 13 38 17 356 66 104 310 337 237 175 242 201 123 192 204 242 261 277 83 272 118 266 257 297 285 284 247 257 254 262 158 154 242 59 46 172
343 349 358 2 354 356 350 347 26 33 14 351 19 13 2 51 75 36 32 14 357 352 325 162 350 351 354 261 247 287 236 218 303 263 191 271 270 326 259 350 100 182 280 74 350 334 229